Location: Dackenheim
(49.5215°N, 8.1854°E)
Time: 10:42:32
(UTC+00:00)

RS-44 - Visible Passes

Search period start: 15 March 2026 00:00
Search period end: 25 March 2026 00:00
Orbit: 1174 x 1511 km, 82.5° (Epoch: 14 March)

Date Brightness Start Highest point End Pass type
(mag) Time Alt. Az. Time Alt. Az. Time Alt. Az.
15 Mar ? 01:18:04 10° N 01:26:11 56° ENE 01:28:33 44° ESE visible
15 Mar ? 03:11:54 10° NNW 03:19:26 40° W 03:21:06 37° WSW visible
15 Mar ? 17:55:49 10° WNW 17:58:46 12° NW 18:01:46 10° NNW visible
15 Mar ? 23:49:10 10° N 23:55:15 22° NE 23:59:11 16° E visible
16 Mar ? 01:41:46 10° N 01:50:07 79° E 01:51:45 62° SE visible
16 Mar ? 03:36:08 10° NNW 03:42:49 28° W 03:44:18 26° W visible
17 Mar ? 00:12:29 10° N 00:19:40 31° ENE 00:22:27 26° E visible
17 Mar ? 02:05:34 10° NNW 02:13:54 76° W 02:15:01 67° SSW visible
17 Mar ? 04:00:46 10° NW 04:06:02 19° WNW 04:07:35 18° W visible
17 Mar ? 22:45:09 10° NNE 22:47:45 11° NE 22:50:23 10° ENE visible
18 Mar ? 00:35:58 10° N 00:43:52 43° ENE 00:45:46 39° E visible
18 Mar ? 02:29:29 10° NNW 02:37:32 53° W 02:38:20 52° WSW visible
18 Mar ? 04:26:34 10° NW 04:29:04 12° WNW 04:30:54 11° W visible
18 Mar ? 23:07:26 10° NNE 23:12:32 17° NE 23:16:33 12° E visible
19 Mar ? 00:59:36 10° N 01:07:56 61° ENE 01:09:07 57° ESE visible
19 Mar ? 02:53:33 10° NNW 03:01:01 37° W 03:01:41 36° W visible
19 Mar ? 23:30:33 10° N 23:37:06 24° ENE 23:39:56 21° E visible
20 Mar ? 01:23:19 10° N 01:31:49 85° E 01:32:31 78° SSE visible
20 Mar ? 03:17:52 10° NNW 03:24:21 25° WNW 03:25:05 25° W visible
20 Mar ? 23:53:56 10° N 00:01:28 34° ENE 00:03:22 31° E visible
21 Mar ? 01:47:09 10° NNW 01:55:33 69° W 01:55:56 69° WSW visible
21 Mar ? 03:42:38 10° NW 03:47:32 17° WNW 03:48:30 16° W visible
21 Mar ? 22:26:02 10° NNE 22:29:42 13° NE 22:33:25 10° ENE visible
22 Mar ? 00:17:29 10° N 00:25:39 48° ENE 00:26:49 46° E visible
22 Mar ? 02:11:07 10° NNW 02:19:10 49° W 02:19:23 49° W visible
22 Mar ? 04:09:31 10° WNW 04:10:30 10° WNW 04:11:30 10° WNW visible
22 Mar ? 22:48:45 10° N 22:54:26 19° NE 22:57:42 16° E visible
23 Mar ? 00:41:09 10° N 00:49:40 67° ENE 00:50:17 66° E visible
23 Mar ? 02:35:14 10° NNW 02:42:37 34° W 02:42:51 34° W visible
23 Mar ? 23:11:59 10° N 23:18:57 27° ENE 23:21:12 24° E visible
24 Mar ? 01:04:55 10° N 01:13:32 88° W 01:13:46 85° SSW visible
24 Mar ? 02:59:38 10° NNW 03:05:54 23° WNW 03:06:21 23° W visible
24 Mar ? 23:35:26 10° N 23:43:17 37° ENE 23:44:42 36° E visible
